Probability
0 0 0 0 0 0 0 0 0 0 0 0 0 0 0 0 0 0 0 0 0 0 0 0 0 1 0 0 0 0 0 0 0 0 0 0 0 0 0 0 0 0 0 0 0 0 0 0 0
0 0 0 0 0 0 0 0 0 0 0 0 0 0 0 0 0 0 0 0 0 1 1 0 1 1 1 0 0 0 0 0 0 0 0 0 0 0 0 0 0 0 0 0 0 0 0 0 0
0 0 0 0 0 0 0 0 0 0 0 0 0 0 0 0 0 0 0 0 1 2 2 2 3 4 3 2 2 1 1 1 0 0 0 0 0 0 0 0 0 0 0 0 0 0 0 0 0
0 0 0 0 0 0 0 0 0 0 0 0 0 0 0 0 0 0 0 0 1 2 2 2 4 5 5 4 4 3 2 2 1 1 1 0 0 0 0 1 1 1 1 1 0 0 0 0 0
0 0 0 0 0 0 0 0 0 0 0 0 0 0 0 0 0 0 0 0 0 1 1 1 2 4 3 3 4 3 3 3 3 2 2 1 1 0 0 1 2 2 2 1 0 0 0 0 0
0 0 0 0 0 0 0 0 0 0 0 0 0 0 0 0 0 0 0 0 0 0 0 0 0 1 1 2 3 2 3 3 3 3 3 3 2 1 1 1 1 2 2 1 0 0 0 0 0
0 0 0 0 0 0 0 0 0 0 0 0 0 0 0 0 0 0 0 0 0 0 0 0 0 0 1 1 1 1 1 1 1 2 4 4 3 2 2 1 1 1 1 0 0 0 0 0 0
0 0 0 0 0 0 0 0 0 0 0 0 0 0 0 0 0 0 0 0 0 0 0 0 0 0 0 0 0 0 0 0 0 1 2 3 2 2 1 1 1 0 0 0 0 0 0 0 0
0 0 0 0 0 0 0 0 0 0 0 0 0 0 0 0 0 0 0 0 0 0 0 0 0 0 0 0 0 0 0 0 0 0 1 1 1 1 1 2 2 1 0 0 0 0 0 0 0
0 0 0 0 0 0 0 0 0 0 0 0 0 0 0 0 0 0 0 0 0 0 0 0 0 0 0 0 0 0 0 0 0 0 0 0 0 0 0 1 1 0 0 0 0 1 1 1 0
0 0 0 0 0 0 0 0 0 0 0 0 0 0 0 0 0 0 0 0 0 0 0 0 0 0 0 0 0 0 0 0 0 0 0 0 0 0 0 0 0 0 0 0 1 2 2 1 1
0 0 0 0 0 0 0 0 0 0 0 0 0 0 0 0 0 0 0 0 0 0 0 0 0 0 0 0 0 0 0 0 0 0 0 0 0 0 0 0 0 0 0 0 1 2 1 1 0
0 0 0 0 0 0 0 0 0 0 0 0 0 0 0 0 0 0 0 0 0 0 0 0 0 0 0 0 0 0 0 0 0 0 0 0 0 0 0 0 0 0 0 0 1 1 0 0 0
0 0 0 0 0 0 0 0 0 0 0 0 0 0 0 0 0 0 0 0 0 0 0 0 0 0 0 0 0 0 0 0 0 0 0 0 0 0 0 1 0 0 0 1 1 1 0 0 0
0 0 0 1 0 0 0 0 0 0 0 0 0 0 0 0 0 0 0 0 0 0 0 0 0 0 0 0 0 0 0 0 0 0 0 0 0 0 0 0 0 0 0 1 0 0 0 0 0
0 0 0 0 0 0 0 0 0 0 0 0 0 0 0 0 0 0 0 0 0 0 0 0 0 0 0 0 0 0 0 0 0 0 0 0 0 0 0 0 0 0 0 0 0 0 0 0 0
0 0 0 0 0 0 0 0 0 0 0 0 0 0 0 0 0 0 0 0 0 0 0 0 0 0 0 0 0 0 0 0 0 0 0 0 0 0 0 0 0 0 0 0 0 0 0 0 0
0 0 0 0 0 0 0 0 0 0 0 0 0 0 0 0 0 0 0 0 0 0 0 0 0 0 0 0 0 0 0 0 0 0 0 0 0 0 0 0 0 0 0 0 0 0 0 0 0
0 0 0 0 0 0 0 0 0 0 0 0 0 0 0 0 0 0 0 0 0 0 0 0 0 0 0 0 0 0 0 0 0 0 0 0 0 0 0 0 0 0 0 0 0 0 0 0 0
0 0 0 0 0 0 0 0 0 0 0 0 0 0 0 0 0 0 0 0 0 0 0 0 0 0 0 0 0 0 0 0 0 0 0 0 0 0 0 0 0 0 0 0 0 0 0 0 0
0 0 0 0 0 0 0 0 0 0 0 0 0 0 0 0 0 0 0 0 0 0 0 0 0 0 0 0 0 0 0 0 0 0 0 0 0 0 0 0 0 0 0 0 0 0 0 0 0
0 0 0 0 0 0 0 0 0 0 0 0 0 0 0 0 0 0 0 0 0 0 0 0 0 0 0 0 0 0 0 0 0 0 0 0 0 0 0 0 0 0 0 0 0 0 0 0 0
0 0 0 0 0 0 0 0 0 0 0 0 0 0 0 0 0 0 0 0 0 0 0 0 0 0 0 0 0 0 0 0 0 0 0 0 0 0 0 0 0 0 0 0 0 0 0 0 0
0 0 0 0 0 0 0 0 0 0 0 0 0 0 0 0 0 0 0 0 0 0 0 0 0 0 0 0 0 0 0 0 0 0 0 0 0 0 0 0 0 0 0 0 0 0 0 0 0
0 0 0 0 0 0 0 0 0 0 0 0 0 0 0 0 0 0 0 0 0 0 0 0 0 0 0 0 0 0 0 0 0 0 0 0 0 0 0 0 0 0 0 0 0 0 0 0 0
0 0 0 0 0 0 0 0 0 0 0 0 0 0 0 0 0 0 0 0 0 0 0 0 0 0 0 0 0 0 0 0 0 0 0 0 0 0 0 0 0 0 0 0 0 0 0 0 0
0 0 0 0 0 0 0 0 0 0 0 0 0 0 0 0 0 0 0 0 0 0 0 0 0 0 0 0 0 0 0 0 0 0 0 0 0 0 0 0 0 0 0 0 0 0 0 0 0
0 0 0 0 0 0 0 0 0 0 0 0 0 0 0 0 0 0 0 0 0 0 0 0 0 0 0 0 0 0 0 0 0 0 0 0 0 0 0 0 0 0 0 0 0 0 0 0 0
0 0 0 0 0 0 0 0 0 0 0 0 0 0 0 0 0 0 0 0 0 0 0 0 0 0 0 0 0 0 0 0 0 0 0 0 0 0 0 0 0 0 0 0 0 0 0 0 0
0 0 0 0 0 0 0 0 0 0 0 0 0 0 0 0 0 0 0 0 0 0 0 0 0 0 0 0 0 0 0 0 0 0 0 0 0 0 0 0 0 0 0 0 0 0 0 0 0
Wind_Speed
10 5 3 2 2 2 1 3 1 1 4 5 9 10 8 6 4 4 2 3 8 8 6 8 10 9 8 7 6 5 4 3 3 3 2 2 2 2 2 1 1 1 1 2 2 2 2 2 2
5 4 2 2 2 1 2 3 1 2 7 7 8 8 7 6 5 4 2 4 8 8 5 6 9 8 7 6 5 4 4 4 3 3 3 3 3 2 2 2 2 2 1 2 1 1 0 1 1
5 3 2 2 1 2 2 2 0 4 7 5 6 6 5 3 3 2 2 6 7 6 4 5 8 7 6 5 4 4 3 4 4 4 4 5 5 5 4 4 4 3 3 3 2 2 2 1 2
3 2 2 3 1 2 4 3 1 4 6 6 6 6 4 3 2 3 5 6 6 5 3 4 8 6 5 4 3 3 3 3 4 5 5 6 6 6 6 6 6 5 5 5 4 4 3 3 3
2 3 3 2 1 3 2 2 2 4 4 4 6 6 3 1 5 6 6 6 6 4 3 4 6 5 4 4 3 4 4 4 4 5 6 7 7 8 8 8 8 8 7 6 6 5 5 5 5
3 3 3 2 2 3 2 1 4 7 6 6 6 5 2 2 5 5 6 5 5 4 3 2 3 3 4 3 3 3 4 4 5 6 6 7 7 8 9 9 10 9 9 8 7 7 6 6 6
3 3 2 3 3 3 3 2 4 6 6 4 6 6 3 2 4 5 5 4 3 3 2 1 1 1 3 3 4 4 4 5 6 7 7 8 8 9 10 10 11 11 10 10 9 9 8 8 7
3 3 2 2 3 4 3 2 4 6 5 4 5 7 5 4 5 4 3 3 2 2 2 1 0 1 2 3 5 5 6 7 7 8 8 8 9 9 10 10 11 11 11 11 11 10 10 9 9
4 4 1 3 4 3 2 3 3 5 6 4 3 4 5 6 6 4 3 2 2 2 1 1 1 1 1 2 3 5 6 7 7 7 8 8 4 5 6 8 10 11 11 11 11 11 11 10 9
4 2 3 4 4 3 2 4 6 5 6 4 4 4 6 6 6 5 4 3 2 2 1 1 1 1 1 2 2 2 3 4 4 4 4 4 3 4 6 7 9 9 10 10 11 11 10 7 3
4 2 3 7 5 2 1 2 4 9 4 6 8 7 6 6 5 5 4 4 3 2 2 2 2 2 2 2 2 2 2 3 3 4 4 3 3 3 3 2 4 4 6 4 5 5 3 2 2
4 2 4 7 5 2 2 3 3 5 7 9 10 8 7 6 6 5 5 4 4 4 3 2 3 3 3 2 2 2 2 2 2 3 4 2 2 2 2 2 3 2 2 2 3 2 3 3 3
3 3 3 5 5 3 1 3 4 4 8 9 9 8 8 7 6 5 6 6 6 4 2 2 3 3 2 2 3 3 3 3 3 2 3 2 2 2 3 2 2 3 2 2 3 3 3 3 3
5 3 1 5 6 3 2 2 5 5 8 10 9 8 8 8 7 6 6 6 5 3 2 1 2 2 2 3 3 3 3 3 3 2 3 3 1 2 2 2 2 2 2 3 3 4 3 3 2
3 3 1 2 3 2 1 2 6 8 9 9 8 8 8 6 7 8 7 6 5 3 2 1 2 3 3 4 4 3 3 3 3 3 3 4 3 2 2 2 2 2 2 2 2 3 2 3 3
2 2 1 4 3 3 2 6 6 8 10 9 8 7 6 5 7 7 7 6 5 3 2 2 3 4 4 4 4 3 3 3 3 3 3 4 4 4 2 2 2 2 1 1 2 2 2 3 3
1 1 3 4 6 4 4 7 5 8 9 8 8 7 6 6 6 6 6 6 5 4 3 2 3 3 3 4 4 4 3 3 3 3 3 4 5 5 3 2 3 2 1 1 2 1 2 2 3
4 4 4 5 6 7 6 7 5 8 8 9 7 6 7 8 7 6 6 6 5 4 4 4 3 3 3 3 3 4 4 4 3 3 3 4 4 4 4 3 4 3 2 1 1 1 1 2 2
6 4 4 5 6 7 8 8 8 9 7 7 6 6 7 7 6 5 5 5 5 4 5 4 4 2 3 2 2 3 3 3 3 3 4 5 4 4 4 4 4 4 2 2 2 1 1 1 1
4 3 3 3 5 6 6 7 7 10 10 9 8 8 9 7 6 5 5 4 5 5 5 4 3 2 2 1 0 0 1 2 2 3 4 4 4 4 4 4 4 4 3 4 3 2 1 1 0
4 5 5 4 2 1 1 4 2 4 4 4 5 8 10 12 10 8 6 5 5 5 5 4 3 3 1 1 1 2 3 3 4 4 4 4 4 4 4 4 4 4 3 3 3 2 1 1 1
4 6 6 4 1 3 3 2 4 4 5 6 6 7 9 9 9 8 7 6 6 5 5 5 4 2 1 2 2 1 1 1 2 2 3 4 4 4 4 4 4 4 3 3 3 3 1 0 1
7 5 4 2 2 2 1 3 6 2 5 7 7 8 8 9 10 9 8 8 6 5 5 4 3 2 1 1 2 1 1 1 2 2 4 4 4 4 4 3 4 4 3 3 3 3 2 1 0
4 3 5 5 5 2 4 5 5 6 8 7 6 7 8 9 9 8 7 6 5 4 4 4 3 2 2 1 1 2 1 0 2 3 3 3 3 3 4 4 4 4 3 3 3 2 3 2 1
5 6 5 5 4 6 3 4 8 6 6 7 8 8 8 8 8 8 7 7 6 6 5 4 4 3 3 2 1 2 2 1 1 1 1 2 2 2 4 4 4 3 3 3 3 3 3 2 2
4 8 7 4 4 5 2 3 5 2 3 5 7 8 8 8 8 9 9 8 7 7 6 5 5 3 3 3 2 2 2 2 1 1 1 2 2 3 4 4 4 4 4 4 3 2 3 2 3
4 3 6 6 2 2 3 2 3 0 2 4 5 7 9 9 9 9 8 8 7 7 7 7 6 4 4 4 3 3 3 2 2 2 2 2 2 3 3 3 4 4 4 3 3 3 3 3 3
5 6 5 4 2 2 2 3 5 7 8 6 7 8 8 8 8 8 8 8 7 7 6 6 5 5 4 4 4 3 3 3 2 1 2 3 3 3 3 3 3 3 3 3 3 3 3 4 4
2 2 5 4 4 5 2 7 7 11 9 8 9 8 8 9 8 8 7 7 7 6 6 5 5 4 4 5 4 3 3 2 2 1 2 2 2 2 3 3 2 2 2 2 3 3 4 5 5
5 5 7 4 3 4 3 8 5 8 8 8 8 7 7 8 8 7 7 6 5 6 5 5 5 5 5 5 4 3 2 2 2 2 2 1 1 2 2 2 2 2 2 2 2 3 4 4 5
Wind_Direction
190 161 120 82 51 34 313 285 248 56 63 59 73 79 82 60 74 116 266 152 139 142 147 149 146 143 144 144 144 146 147 151 156 163 164 166 165 153 139 130 114 107 111 104 91 70 59 56 54
163 148 114 70 85 75 292 288 334 101 136 122 75 68 72 70 68 86 43 121 132 138 145 150 147 146 149 152 156 160 167 176 187 200 207 209 213 211 205 203 201 206 190 172 168 150 28 19 13
164 152 121 96 121 178 224 253 249 85 113 97 79 53 62 58 68 92 137 130 125 129 138 150 145 144 148 156 165 175 188 198 208 217 224 227 229 230 227 224 219 220 221 215 208 210 239 264 279
152 90 52 71 91 229 213 234 177 99 76 64 100 76 60 25 89 129 129 126 124 126 134 147 143 145 149 157 175 190 203 216 227 234 236 235 233 233 231 229 226 223 225 226 223 219 229 246 260
90 90 75 71 266 272 247 224 128 92 79 73 94 92 78 60 119 133 133 133 137 144 155 158 150 151 160 177 198 213 225 236 247 252 253 249 244 239 236 232 230 227 225 227 224 222 230 239 249
77 79 97 163 218 275 279 165 104 96 105 112 99 104 119 158 144 149 148 151 150 152 160 165 170 175 188 209 225 243 251 255 260 263 264 260 256 249 242 237 232 230 228 226 224 221 227 237 245
127 111 142 173 193 240 227 141 106 107 102 103 116 111 148 183 178 154 149 147 143 142 139 159 254 281 261 261 263 269 271 275 275 274 272 270 267 262 252 243 236 232 230 228 225 222 224 232 240
130 100 119 198 204 222 218 124 117 112 99 85 104 133 171 198 172 136 123 121 131 140 140 148 243 297 297 290 282 279 276 279 281 279 275 275 273 271 265 256 244 237 234 231 228 226 226 229 235
85 79 223 228 209 229 214 121 82 68 87 62 73 138 164 155 133 114 103 83 83 86 89 111 69 349 317 295 296 294 291 293 292 287 280 279 272 273 274 267 255 244 239 235 232 230 230 231 235
80 98 260 265 236 221 201 145 133 102 90 86 88 104 124 125 127 130 130 120 111 89 63 62 50 15 352 335 329 300 293 290 285 275 273 270 263 260 265 266 262 252 244 241 235 234 236 235 225
97 131 309 293 266 246 178 144 122 127 142 171 163 158 146 134 130 132 136 136 136 123 88 67 48 24 14 342 330 313 304 297 291 284 274 267 267 266 269 265 266 264 253 242 238 232 226 217 204
110 157 199 264 287 288 191 138 97 149 176 170 163 155 146 141 143 143 135 126 111 96 90 57 48 36 18 9 337 323 316 305 297 292 296 283 274 272 266 255 251 243 235 219 219 210 221 224 214
136 187 241 304 327 339 72 122 129 148 147 149 149 141 147 151 144 133 122 112 106 100 94 47 59 47 22 11 340 349 331 316 311 312 316 307 284 282 279 266 254 245 228 219 216 216 221 227 222
172 168 346 333 334 342 83 147 132 177 158 152 151 157 166 162 144 125 116 115 119 120 104 77 77 52 33 13 347 336 336 337 346 344 336 338 327 310 298 291 273 256 235 225 217 217 216 223 223
125 102 59 289 278 283 97 245 208 177 167 163 169 176 180 163 139 140 143 139 141 138 115 88 100 57 33 10 352 351 348 356 359 353 357 2 1 345 336 333 306 279 253 230 224 228 217 221 222
96 87 201 235 225 245 167 245 243 175 170 178 186 188 179 154 145 151 149 144 143 129 95 43 60 57 37 21 6 355 355 3 359 356 0 4 4 2 359 349 325 307 295 257 230 219 223 229 228
75 168 241 252 208 210 196 239 237 186 179 190 196 191 174 152 153 160 154 151 146 130 102 80 69 61 41 26 14 4 2 6 359 2 2 3 6 8 9 352 333 334 332 309 278 223 210 225 237
190 199 221 230 209 199 220 241 217 201 192 200 201 188 174 164 171 167 158 153 143 119 97 93 71 60 43 26 15 8 6 0 359 360 360 4 3 9 13 5 353 353 0 346 324 270 225 222 233
173 183 216 231 202 188 225 239 217 205 202 202 201 186 173 170 172 161 154 145 129 100 89 88 83 58 48 33 15 8 352 341 347 350 357 2 4 10 20 11 2 3 6 352 340 311 268 260 216
153 196 236 266 208 190 228 251 226 197 201 195 189 178 163 156 156 156 150 139 125 113 107 106 104 83 66 58 326 314 311 313 320 337 353 358 5 9 21 17 8 5 7 8 3 13 12 325 144
183 193 198 219 278 228 188 318 240 200 198 194 183 169 160 165 165 164 154 144 132 127 131 129 129 116 87 45 24 12 7 356 354 348 345 344 354 5 13 14 12 10 19 6 354 9 40 326 302
208 215 203 202 136 277 158 244 277 203 187 199 193 167 166 165 162 163 158 152 151 155 149 142 143 141 122 71 59 51 29 342 306 308 324 341 355 358 5 10 11 8 10 4 349 14 359 83 303
205 211 198 183 144 338 332 148 279 175 200 218 207 183 172 169 166 168 166 163 163 161 155 155 153 163 181 118 104 85 38 294 305 335 351 353 350 348 351 0 5 1 354 352 353 356 360 358 254
167 67 41 48 66 322 235 157 248 212 206 204 201 185 174 171 169 168 165 158 158 160 155 157 162 192 217 193 121 128 134 49 20 0 348 342 336 330 336 345 352 348 347 346 346 350 355 352 336
87 80 33 3 9 261 240 160 237 231 201 177 178 181 177 171 166 166 166 168 169 171 172 172 175 198 217 210 186 162 165 165 131 310 318 335 331 317 318 334 336 334 332 339 353 5 355 350 350
160 131 150 192 224 282 325 213 255 253 173 158 164 172 173 176 176 176 179 179 181 185 186 189 196 206 210 205 204 193 173 173 205 233 249 289 283 281 299 324 334 336 341 355 5 9 352 356 346
131 151 169 143 204 264 296 330 337 348 175 172 174 173 185 188 186 185 185 183 185 190 196 200 201 207 209 206 196 199 206 208 227 251 265 284 291 296 321 335 339 346 358 7 10 8 356 355 349
143 145 97 118 160 279 298 228 224 217 220 215 203 198 203 197 191 188 186 188 192 197 205 206 201 204 209 206 204 200 216 228 234 244 276 289 305 320 336 343 345 352 4 9 15 2 353 359 345
165 147 114 122 157 159 224 256 224 198 200 199 208 207 199 194 192 190 192 195 196 199 205 208 210 205 205 208 210 212 229 235 219 223 253 264 297 320 333 338 348 357 1 2 11 356 358 356 342
177 180 146 153 216 170 184 263 265 187 189 187 198 203 197 192 190 189 190 191 195 203 212 213 209 205 207 206 207 213 216 207 205 219 236 239 295 322 337 356 4 356 356 354 1 350 355 348 335